Retour au catalogue

STARLINK-3159

ActifCommunicationsVLEO
NORAD 49415·PAYLOAD·🇺🇸 United States

Lancé Nov 13, 2021 depuis Cape Canaveral Space Force Station

Loading…

Prochains Passages (prochaines 24 heures)

TLE

FraisSource: CelesTrak SupGP

Époque: Sep 14, 2026, 21:12 UTC

1 49415C 21104H   26257.88381944  .00028673  00000+0  84718-3 0  2571
2 49415  53.1579  77.6343 0001193  82.0197  60.5618 15.34375169    17

Suivez STARLINK-3159 en temps réel avec AllMySat

Download on the App Store